This demonstration page uses our WeatherBlox Daily Observations layout. Learn more.

39.51506, -84.39828

Hourly Observations for November 20, 2019

Temp ( °F °C ) Dew Point ( °F °C ) Humidity (%) Winds ( mph kmh ) Pressure ( in mb ) Visibility ( mi km ) Precip ( " mm )
12:15 am 00:15 Cloudy with Mist and Fog 40 4.2 39 4 99 99 Calm 30 1016 1.5 2.41401 0 0
12:35 am 00:35 Cloudy with Fog 38 3.6 38 3.4 99 99 Calm 30.01 1016 0.25 0.402335 0 0
12:55 am 00:55 Cloudy with Mist and Fog 40 4.2 39 4 99 99 Calm 30.01 1016 2 3.21868 0 0
1:15 am 01:15 Mostly Cloudy with Fog 39 3.8 38 3.6 99 99 Calm 30.01 1016 0.25 0.402335 0 0
1:35 am 01:35 Cloudy with Mist and Fog 38 3.2 38 3.1 99 99 Calm 30.04 1017 0.75 1.207005 0 0
1:55 am 01:55 Cloudy with Fog 37 2.9 37 2.8 99 99 Calm 30.05 1018 0.25 0.402335 0 0
2:15 am 02:15 Cloudy with Fog 37 2.8 37 2.7 99 99 Calm 30.05 1018 0.25 0.402335 0 0
2:35 am 02:35 Mostly Cloudy with Mist and Fog 36 2.1 36 2 99 99 Calm 30.06 1018 0.75 1.207005 0 0
2:55 am 02:55 Mostly Cloudy with Fog 33 0.3 32 0.2 99 99 Calm 30.08 1019 N/A 0 0
3:15 am 03:15 Cloudy with Fog 32 0 32 -0.1 99 99 Calm 30.11 1019 0.5 0.80467 0 0
3:35 am 03:35 Cloudy with Mist and Fog 35 1.4 35 1.4 100 100 Calm 30.1 1019 1.5 2.41401 0 0
3:55 am 03:55 Cloudy with Mist and Fog 36 2.3 36 2.3 100 100 N 3 6 30.11 1020 2.5 4.02335 0 0
4:15 am 04:15 Cloudy with Mist and Fog 38 3.2 38 3.2 100 100 Calm 30.12 1020 3 4.82802 0 0
4:35 am 04:35 Cloudy with Mist and Fog 38 3.6 38 3.5 99 99 Calm 30.13 1020 3.5 5.63269 0 0
4:55 am 04:55 Cloudy with Mist and Fog 39 3.9 39 3.8 99 99 Calm 30.13 1020 3.5 5.63269 0 0
5:15 am 05:15 Cloudy with Mist and Fog 39 4.1 39 3.9 99 99 Calm 30.14 1021 4 6.43736 0 0
5:35 am 05:35 Cloudy with Mist and Fog 40 4.3 39 4 98 98 Calm 30.15 1021 4 6.43736 0 0
5:55 am 05:55 Cloudy with Mist and Fog 40 4.4 39 4.1 98 98 Calm 30.15 1021 4 6.43736 0 0
6:15 am 06:15 Cloudy with Mist and Fog 40 4.5 40 4.2 98 98 Calm 30.16 1021 4 6.43736 0 0
6:35 am 06:35 Cloudy with Mist and Fog 40 4.6 39 4 96 96 Calm 30.17 1022 5 8.0467 0 0
6:55 am 06:55 Cloudy with Mist and Fog 40 4.7 39 4 95 95 Calm 30.18 1022 5 8.0467 0 0
7:15 am 07:15 Cloudy with Mist and Fog 41 4.8 39 4.1 95 95 Calm 30.18 1022 4 6.43736 0 0
7:35 am 07:35 Cloudy with Mist and Fog 41 4.9 39 3.7 92 92 Calm 30.19 1022 4 6.43736 0 0
7:55 am 07:55 Cloudy with Mist and Fog 41 5 39 3.9 93 93 Calm 30.21 1023 4 6.43736 0 0
8:15 am 08:15 Cloudy with Mist and Fog 42 5.3 39 4.1 92 92 Calm 30.22 1023 4 6.43736 0 0
8:35 am 08:35 Cloudy with Mist and Fog 42 5.6 39 3.8 88 88 Calm 30.22 1023 5 8.0467 0 0
8:55 am 08:55 Cloudy with Mist and Fog 42 5.8 39 3.7 87 87 Calm 30.23 1024 5 8.0467 0 0
9:15 am 09:15 Cloudy with Mist and Fog 43 6.1 39 3.8 85 85 Calm 30.22 1023 5 8.0467 0 0
9:35 am 09:35 Cloudy with Mist and Fog 44 6.4 39 4.1 85 85 Calm 30.24 1024 5 8.0467 0 0
9:55 am 09:55 Cloudy with Haze 44 6.5 39 4.1 85 85 Calm 30.25 1024 5 8.0467 0 0
10:15 am 10:15 Cloudy with Haze 44 6.8 38 3.6 80 80 NW 3 6 30.26 1025 7 11.26538 0 0
10:35 am 10:35 Cloudy with Haze 44 6.9 38 3.4 79 79 Calm 30.26 1025 7 11.26538 0 0
10:55 am 10:55 Cloudy with Haze 45 7.1 38 3.2 76 76 Calm 30.26 1025 7 11.26538 0 0
11:15 am 11:15 Cloudy 45 7.4 37 2.8 73 73 Calm 30.26 1025 10 16.0934 0 0
11:35 am 11:35 Cloudy 46 7.8 38 3.1 72 72 Calm 30.25 1025 10 16.0934 0 0
11:55 am 11:55 Cloudy 47 8.4 39 3.9 74 74 ENE 3 6 30.25 1024 7 11.26538 0 0
12:15 pm 12:15 Cloudy 46 8 39 4 76 76 Calm 30.25 1025 7 11.26538 0 0
12:35 pm 12:35 Cloudy 48 8.7 39 3.7 71 71 Calm 30.24 1024 7 11.26538 0 0
12:55 pm 12:55 Cloudy 48 8.9 39 3.9 71 71 Calm 30.24 1024 7 11.26538 0 0
1:15 pm 13:15 Cloudy 49 9.2 39 4 70 70 S 3 6 30.24 1024 7 11.26538 0 0
1:35 pm 13:35 Cloudy 49 9.5 39 4.1 69 69 S 3 6 30.24 1024 7 11.26538 0 0
1:55 pm 13:55 Cloudy 49 9.3 39 3.9 69 69 SSW 3 6 30.25 1024 7 11.26538 0 0
2:15 pm 14:15 Cloudy 49 9.3 39 4 70 70 Calm 30.23 1024 7 11.26538 0 0
2:35 pm 14:35 Cloudy 49 9.2 39 3.8 69 69 Calm 30.23 1024 7 11.26538 0 0
2:55 pm 14:55 Cloudy 49 9.4 39 3.8 68 68 W 3 6 30.23 1024 10 16.0934 0 0
3:15 pm 15:15 Cloudy 49 9.4 39 3.9 69 69 SW 5 7 30.23 1024 10 16.0934 0 0
3:35 pm 15:35 Cloudy 49 9.4 39 4 69 69 Calm 30.23 1024 7 11.26538 0 0
3:55 pm 15:55 Cloudy 49 9.4 39 3.9 69 69 Calm 30.23 1024 10 16.0934 0 0
4:15 pm 16:15 Cloudy 49 9.4 39 3.9 69 69 Calm 30.25 1024 10 16.0934 0 0
4:35 pm 16:35 Cloudy 49 9.3 40 4.3 71 71 SSW 3 6 30.25 1024 7 11.26538 0 0
4:55 pm 16:55 Cloudy 48 8.8 40 4.5 75 75 Calm 30.25 1024 7 11.26538 0 0
5:15 pm 17:15 Cloudy 48 8.7 40 4.3 74 74 Calm 30.25 1024 7 11.26538 0 0
5:35 pm 17:35 Cloudy 48 8.8 40 4.2 73 73 Calm 30.25 1024 7 11.26538 0 0
5:55 pm 17:55 Cloudy 47 8.5 40 4.6 77 77 Calm 30.25 1024 10 16.0934 0 0
6:15 pm 18:15 Cloudy 47 8.4 40 4.7 78 78 Calm 30.25 1024 10 16.0934 0 0
6:35 pm 18:35 Cloudy 48 8.8 41 4.9 77 77 S 5 7 30.26 1025 10 16.0934 0 0
6:55 pm 18:55 Cloudy 48 8.8 41 4.9 77 77 S 5 7 30.26 1025 10 16.0934 0 0
7:15 pm 19:15 Cloudy 48 8.8 41 4.9 77 77 S 9 15 30.26 1025 10 16.0934 0 0
7:35 pm 19:35 Cloudy 47 8.6 41 4.9 78 78 SSW 8 13 30.27 1025 10 16.0934 0 0
7:55 pm 19:55 Cloudy 47 8.5 41 4.8 78 78 SSW 9 15 30.26 1025 10 16.0934 0 0
8:15 pm 20:15 Cloudy 46 7.8 40 4.6 80 80 SSE 3 6 30.26 1025 10 16.0934 0 0
8:35 pm 20:35 Partly Cloudy 46 7.5 40 4.4 81 81 SSE 6 9 30.27 1025 10 16.0934 0 0
8:55 pm 20:55 Clear 45 7.4 40 4.5 82 82 SSE 6 9 30.27 1025 10 16.0934 0 0
9:15 pm 21:15 Clear 45 7.1 40 4.5 84 84 SSE 3 6 30.27 1025 10 16.0934 0 0
9:35 pm 21:35 Clear 44 6.9 40 4.3 84 84 S 5 7 30.28 1025 10 16.0934 0 0
9:55 pm 21:55 Clear 44 6.4 40 4.4 87 87 SSW 7 11 30.28 1025 10 16.0934 0 0
10:15 pm 22:15 Clear 43 6.3 40 4.4 88 88 S 7 11 30.28 1025 10 16.0934 0 0
10:35 pm 22:35 Clear 43 6.2 40 4.4 88 88 SSW 6 9 30.28 1025 10 16.0934 0 0
10:55 pm 22:55 Clear 42 5.6 39 4 90 90 SSW 6 9 30.28 1025 10 16.0934 0 0
11:15 pm 23:15 Clear 41 5.2 39 3.7 90 90 Calm 30.28 1025 10 16.0934 0 0
11:35 pm 23:35 Clear 42 5.4 39 4 91 91 Calm 30.27 1025 10 16.0934 0 0
11:55 pm 23:55 Clear 42 5.7 39 3.9 88 88 S 3 6 30.26 1025 10 16.0934 0 0

Powered by AerisWeather